Flag for Germany Weather past 2 weeks in Gummersbach, North Rhine-Westphalia, Germany

54 °F

Partly sunny.

Feels Like: 53 °F
Forecast: 40 / 56 °F
Wind: 3 mph from North

Location: Koeln / Bonn

Current Time: Oct 9, 2015 at 8:27:53 PM

Latest Report: Oct 9, 2015 at 7:50 PM

Visibility: N/A

Pressure: 30.15 "Hg

Humidity: 94%

Dew point: 52 °F

Location of GummersbachLocation

Historic Weather in Gummersbach — Graph


Gummersbach temperature yesterday

Maximum temperature yesterday: 57 °F (at 12:20 AM)
Minimum temperature yesterday: 52 °F (at 7:20 AM)
Average temperature yesterday: 54 °F

Past Weeks' High & Low Weather Summary

High70 °F (Oct 2, 3:50 PM)100% (Sep 25, 11:50 PM)30.63 "Hg (Sep 25, 11:50 PM)
Low36 °F (Oct 2, 4:50 AM)37% (Sep 30, 4:50 PM)29.59 "Hg (Oct 6, 4:50 PM)
Average54 °F81%30.19 "Hg
* Reported Sep 24 7:20 PM — Oct 9 7:20 PM, Gummersbach, Weather by CustomWeather, © 2015

Note: Actual official high and low records may vary slightly from our data, if they occured in-between our weather recording intervals... More about our weather records


Gummersbach weather history for previous 24 hours

Time TempWeatherWind HumidityBarometerVisibility
7:20 PM
Fri, Oct 9
55 °FBroken clouds.2 mph88%30.15 "HgN/A
6:50 PM55 °FPartly sunny.3 mph88%30.15 "HgN/A
6:20 PM55 °FPartly sunny.6 mph88%30.15 "HgN/A
5:50 PM57 °FPartly sunny.6 mph82%30.15 "HgN/A
5:20 PM57 °FPartly sunny.6 mph82%30.15 "HgN/A
4:50 PM57 °FPartly sunny.7 mph82%30.15 "HgN/A
4:20 PM57 °FPartly sunny.3 mph82%30.15 "HgN/A
3:50 PM57 °FLight rain. Partly sunny.5 mph82%30.15 "HgN/A
3:20 PM55 °FPartly sunny.6 mph88%30.15 "HgN/A
2:50 PM55 °FPartly sunny.6 mph88%30.15 "HgN/A
2:20 PM55 °FLight rain. Partly sunny.8 mph88%30.15 "HgN/A
1:50 PM55 °FLight rain. Partly sunny.8 mph88%30.15 "HgN/A
1:20 PM55 °FPartly sunny.7 mph88%30.18 "HgN/A
12:50 PM55 °FPartly sunny.5 mph88%30.18 "HgN/A
12:20 PM55 °FPartly sunny.5 mph88%30.18 "HgN/A
11:50 AM55 °FPartly sunny.3 mph88%30.18 "HgN/A
11:20 AM55 °FPartly sunny.3 mph88%30.18 "Hg6 mi
10:50 AM54 °FFog.3 mph94%30.18 "Hg3 mi
10:20 AM54 °FFog.2 mph94%30.18 "Hg3 mi
9:50 AM54 °FFog.3 mph100%30.18 "Hg3 mi
9:20 AM52 °FLight rain. Fog.1 mph100%30.18 "Hg2 mi
8:50 AM52 °FLight rain. Fog.No wind100%30.18 "Hg2 mi
8:20 AM52 °FLight rain. Fog.2 mph100%30.18 "Hg2 mi
7:50 AM52 °FPassing clouds.2 mph100%30.15 "Hg4 mi
7:20 AM52 °FPassing clouds.2 mph100%30.15 "Hg5 mi
6:50 AM52 °FLight rain. Passing clouds.1 mph100%30.15 "Hg5 mi
6:20 AM52 °FPartly cloudy.2 mph100%30.15 "Hg5 mi
5:50 AM52 °FPassing clouds.2 mph100%30.15 "Hg5 mi
5:20 AM52 °FLight rain. Partly cloudy.1 mph100%30.15 "HgN/A
4:50 AM52 °FLight rain. Passing clouds.1 mph100%30.18 "HgN/A
4:20 AM52 °FPassing clouds.2 mph100%30.18 "HgN/A
3:50 AM52 °FPassing clouds.1 mph100%30.18 "HgN/A
3:20 AM52 °FPassing clouds.2 mph100%30.18 "HgN/A
2:50 AM54 °FLight rain. Passing clouds.1 mph100%30.18 "HgN/A
2:20 AM54 °FLight rain. Passing clouds.2 mph100%30.18 "HgN/A
1:50 AM54 °FPassing clouds.1 mph100%30.18 "HgN/A
1:20 AM54 °FPassing clouds.2 mph100%30.18 "HgN/A
12:50 AM54 °FLight rain. Low clouds.2 mph100%30.18 "HgN/A
12:20 AM54 °FLow clouds.1 mph100%30.18 "HgN/A
11:50 PM
Thu, Oct 8
54 °FLow clouds.2 mph100%30.18 "HgN/A
11:20 PM52 °FPassing clouds.1 mph100%30.18 "HgN/A
10:50 PM52 °FPassing clouds.2 mph100%30.18 "HgN/A
10:20 PM52 °FPassing clouds.2 mph100%30.18 "HgN/A
9:50 PM52 °FPassing clouds.3 mph100%30.18 "HgN/A
9:20 PM54 °FPassing clouds.2 mph100%30.18 "Hg6 mi
8:50 PM54 °FPassing clouds.1 mph100%30.18 "HgN/A
8:20 PM52 °FPassing clouds.3 mph100%30.18 "HgN/A
Weather by CustomWeather, © 2015

See weather overviewHow to use our weather pages